LA8QT Lodingen NO current weather conditions

sailwx.info

Wind from 016 at 5 knots

Air temperature 7.8° C
Dewpoint 3.8° C

Last reported at 2018-Apr-21 09:05 UTC.
Time now 2018-Apr-21 09:31 UTC

Location: N 68°28' E 016°04'.
View on Google Maps.

See reports from other nearby stations

  
Tides and Currents Weather Stations Pressure Air Temp Water Temp Dewpoint Dewpoint Depression Visibility Wind Speed Wind Dir Waves Ship Positions
date/time (UTC)wind fromknots sea level pressurealtimeterstation pressurevisibilityair tempwater tempwave heightnotes
2018-Apr-21 09:05 016 5 7.8
2018-Apr-21 08:50 359 6 7.8
2018-Apr-21 08:35 360 6 7.2
2018-Apr-21 08:20 295 5 7.2
2018-Apr-21 08:05 017 5 6.7
2018-Apr-21 07:50 019 9 6.7
2018-Apr-21 07:35 023 7 6.1
2018-Apr-21 07:20 295 8 6.1
2018-Apr-21 07:05 014 6 6.1
2018-Apr-21 06:50 004 5 6.7
2018-Apr-21 06:35 295 7 6.1
2018-Apr-21 06:20 009 6 5.6
2018-Apr-21 06:05 017 6 5.6
2018-Apr-21 05:50 295 6 5.6
2018-Apr-21 05:35 014 7 5.0
2018-Apr-21 05:19 295 3 5.6
2018-Apr-21 05:04 022 5 5.0
2018-Apr-21 04:50 011 5 5.0
2018-Apr-21 04:34 016 5 4.4
2018-Apr-21 04:19 003 4 5.0
2018-Apr-21 04:04 011 4 4.4
2018-Apr-21 03:49 354 2 3.9
2018-Apr-21 03:34 354 3.3
2018-Apr-21 03:19 354 3.3
2018-Apr-21 03:04 354 3.3
2018-Apr-21 02:49 355 1 3.3
2018-Apr-21 02:34 352 0 3.3
2018-Apr-21 02:19 352 3.9
2018-Apr-21 02:04 352 3.9
2018-Apr-21 01:49 352 2 3.9
2018-Apr-21 01:34 009 4 3.9
2018-Apr-21 01:19 337 6 3.9
2018-Apr-21 01:04 295 7 4.4
2018-Apr-21 00:49 360 5 4.4
2018-Apr-21 00:34 359 0 3.9
2018-Apr-21 00:19 359 0 3.3
2018-Apr-21 00:04 359 0 3.9
2018-Apr-20 23:49 359 0 3.9
2018-Apr-20 23:34 351 3 3.9
2018-Apr-20 23:19 007 2 3.9
2018-Apr-20 23:04 017 4 4.4
2018-Apr-20 22:49 339 2 4.4
2018-Apr-20 22:34 335 5 5.0
2018-Apr-20 22:19 015 0 4.4
2018-Apr-20 22:04 014 2 4.4
2018-Apr-20 21:49 015 3 4.4
2018-Apr-20 21:34 023 4 4.4
2018-Apr-20 21:19 190 0 5.0
2018-Apr-20 21:04 190 4.4
2018-Apr-20 20:49 189 4.4
2018-Apr-20 20:34 189 0 5.0
2018-Apr-20 20:19 189 4.4
2018-Apr-20 20:04 190 4.4
2018-Apr-20 19:49 190 4.4
2018-Apr-20 19:34 190 0 5.0
2018-Apr-20 19:19 190 2 5.0
2018-Apr-20 19:04 184 0 5.0
2018-Apr-20 18:49 135 0 5.0
2018-Apr-20 18:34 135 5.0
2018-Apr-20 18:19 136 5.0
2018-Apr-20 18:04 136 5.0
2018-Apr-20 17:49 136 5.0
2018-Apr-20 17:34 136 0 5.0
2018-Apr-20 17:19 137 6 5.0
2018-Apr-20 17:04 099 7 5.0
2018-Apr-20 16:49 133 3 5.0
2018-Apr-20 16:34 152 6 5.6
2018-Apr-20 16:19 168 9 6.1
2018-Apr-20 16:04 215 9 6.1
2018-Apr-20 15:34 177 8 6.1
2018-Apr-20 15:19 195 10 6.1
2018-Apr-20 15:04 202 8 5.6
2018-Apr-20 14:49 200 7 6.1
2018-Apr-20 14:34 183 6 6.1
2018-Apr-20 14:19 170 6 6.1
2018-Apr-20 14:04 196 9 6.1
2018-Apr-20 13:49 189 13 6.1
2018-Apr-20 13:34 200 10 6.1
2018-Apr-20 13:19 200 12 6.1
2018-Apr-20 13:04 191 11 6.1
2018-Apr-20 12:49 152 6 5.6
2018-Apr-20 12:34 152 6 5.0
2018-Apr-20 12:19 150 7 5.6
2018-Apr-20 12:03 195 6 6.1
2018-Apr-20 11:48 207 8 6.1
2018-Apr-20 11:33 295 7 5.6
2018-Apr-20 11:18 219 9 6.1
2018-Apr-20 11:03 181 8 6.1
2018-Apr-20 10:48 192 9 6.1
2018-Apr-20 10:33 295 8 6.1
2018-Apr-20 10:18 194 6 6.1
2018-Apr-20 10:03 179 7 6.1
2018-Apr-20 09:48 166 5 5.6
2018-Apr-20 09:33 167 6 5.6
2018-Apr-20 09:18 191 7 5.6
2018-Apr-20 09:03 295 10 5.6
2018-Apr-20 08:48 204 12 5.6
2018-Apr-20 08:33 295 12 5.6
2018-Apr-20 08:18 175 11 5.6
2018-Apr-20 08:03 197 10 5.6
2018-Apr-20 07:48 202 9 5.6
2018-Apr-20 07:33 181 10 5.6
2018-Apr-20 07:18 182 7 5.6
2018-Apr-20 07:03 170 8 5.6
2018-Apr-20 06:48 208 7 5.6
2018-Apr-20 06:33 199 7 5.6
2018-Apr-20 06:18 187 8 5.6
2018-Apr-20 06:03 197 10 5.6
2018-Apr-20 05:48 295 13 5.6
2018-Apr-20 05:33 179 11 6.1
2018-Apr-20 05:18 176 9 6.1
2018-Apr-20 05:03 295 10 6.1
2018-Apr-20 04:48 295 7 5.6
2018-Apr-20 04:33 206 7 5.6
2018-Apr-20 04:18 198 4 5.0
2018-Apr-20 04:03 163 2 5.0
2018-Apr-20 03:48 209 4 5.0
2018-Apr-20 03:33 194 3 5.0
2018-Apr-20 03:18 148 1 4.4
2018-Apr-20 03:03 146 1 4.4
2018-Apr-20 02:48 182 1 5.0
2018-Apr-20 02:33 181 2 5.0
2018-Apr-20 02:18 176 1 5.0
2018-Apr-20 02:03 173 2 4.4
2018-Apr-20 01:48 189 2 5.0
2018-Apr-20 01:33 184 2 5.0
2018-Apr-20 01:18 194 2 5.0
2018-Apr-20 01:03 191 1 5.0
2018-Apr-20 00:48 185 2 5.0
2018-Apr-20 00:33 219 4 5.0
2018-Apr-20 00:18 200 3 4.4
2018-Apr-20 00:03 133 2 3.9
2018-Apr-19 23:48 088 1 3.9
2018-Apr-19 23:33 343 4.4
2018-Apr-19 23:18 341 4.4
2018-Apr-19 23:03 341 4.4
2018-Apr-19 22:48 341 0 3.9
2018-Apr-19 22:33 341 3.9
2018-Apr-19 22:18 341 4.4
2018-Apr-19 22:02 341 4.4
2018-Apr-19 21:48 341 4.4
2018-Apr-19 21:32 340 3.9
2018-Apr-19 21:18 340 4.4
2018-Apr-19 21:02 341 4.4
2018-Apr-19 20:48 341 0 4.4
2018-Apr-19 20:32 341 2 4.4
2018-Apr-19 20:17 347 0 5.0
2018-Apr-19 20:02 348 3 5.0
2018-Apr-19 19:47 333 5 5.0
2018-Apr-19 19:32 346 3 5.0
2018-Apr-19 19:17 006 4 4.4
2018-Apr-19 19:02 002 4 5.0
2018-Apr-19 18:48 012 5 5.0
2018-Apr-19 18:32 343 3 4.4
2018-Apr-19 18:17 011 5 4.4
2018-Apr-19 18:02 003 5 4.4
2018-Apr-19 17:47 350 1 4.4
2018-Apr-19 17:32 183 2 4.4
2018-Apr-19 17:17 183 5.0
2018-Apr-19 17:02 183 5.0
2018-Apr-19 16:47 183 5.0
2018-Apr-19 16:32 183 5.0
2018-Apr-19 16:17 183 4.4
2018-Apr-19 15:47 183 4.4
2018-Apr-19 15:32 183 4.4
2018-Apr-19 15:17 183 4.4
2018-Apr-19 15:02 183 0 4.4
2018-Apr-19 14:47 183 1 4.4
2018-Apr-19 14:32 185 0 4.4
2018-Apr-19 14:17 184 4.4
2018-Apr-19 14:02 183 0 4.4
2018-Apr-19 13:47 184 1 4.4
2018-Apr-19 13:32 195 1 4.4
2018-Apr-19 13:17 196 3 4.4
2018-Apr-19 13:02 179 2 5.0
2018-Apr-19 12:47 181 1 4.4
2018-Apr-19 12:32 179 1 4.4
2018-Apr-19 12:17 183 2 5.0
2018-Apr-19 12:02 164 0 5.0
2018-Apr-19 11:47 161 4.4
2018-Apr-19 11:32 160 4.4
2018-Apr-19 11:17 160 4.4
2018-Apr-19 11:02 160 4.4
2018-Apr-19 10:47 160 4.4
2018-Apr-19 10:32 160 4.4
2018-Apr-19 10:17 160 4.4
2018-Apr-19 10:02 160 4.4
2018-Apr-19 09:47 160 4.4
2018-Apr-19 09:32 160 4.4
2018-Apr-19 09:17 160 4.4
2018-Apr-19 09:02 160 4.4